Regional Weather Roundup
Issued by NWS Wakefield, VA

Home | Current Version | Previous Version | Graphics & Text | Print | Product List | Glossary On
Versions: 1 2 3 4 5 6 7 8 9 10 11 12 13 14 15 16 17 18 19 20 21 22 23 24 25 26 27 28 29 30 31 32 33 34 35 36 37 38 39 40 41 42 43 44 45 46 47 48 49 50
000
ASUS41 KAKQ 251010
RWRAKQ

REGIONAL WEATHER ROUNDUP
NATIONAL WEATHER SERVICE WAKEFIELD VA
600 AM EDT FRI JUL 25 2014

Note: "fair" indicates few or no clouds below 12,000 feet with no
significant weather and/or obstructions to visibility. * = Denotes
station may not report precipitation (e.g., rain,snow,etc.),
thunder or fog.

VAZ042-051-052>054-056-251100-
NORTHERN VIRGINIA

CITY           SKY/WX    TMP DP  RH WIND       PRES   REMARKS
WASH NATIONAL  CLEAR     65  52  62 NW8       30.03R
DULLES         PTCLDY    58  54  86 CALM      30.04R
FORT BELVOIR   CLEAR     58  57  97 CALM      30.04R
QUANTICO       CLEAR     63  59  87 NW8       30.04R
FREDERICKSBRG* CLEAR     61  61 100 NW3       30.02R
STAFFORD*      CLEAR     60  60 100 N6        30.07R
WARRENTON      CLEAR     56  56 100 CALM      30.04R FOG
CULPEPER*      FOG      N/A N/A N/A CALM      30.05R VSB 3/4
MANASSAS*      CLEAR     57  57 100 CALM      30.05R
LEESBURG*      CLEAR     59  59 100 N5        30.06R
WINCHESTER     PTCLDY    59  52  77 CALM      30.07R
$$

VAZ048-049-060>072-079>083-251100-
CENTRAL AND SOUTH CENTRAL VIRGINIA...AND NORTH CENTRAL NORTH CAROLINA

CITY           SKY/WX    TMP DP  RH WIND       PRES   REMARKS
RICHMOND       PTCLDY    66  63  90 N6        30.01R
CHESTERFIELD*  SUNNY     63  54  72 NW3       30.03R
HANOVER        FOG       62  61  96 CALM      30.03R VSB 3/4
TAPPAHANNOCK*  CLEAR     63  60  89 CALM      30.01R
CHARLOTTSVILLE FOG       60  59  96 CALM      30.04R VSB 1/4
ORANGE*        PTCLDY    59  57  94 CALM      30.05R
LOUISA*        CLEAR     61  61 100 N3        30.03R
FARMVILLE*     FOG       61  61 100 CALM      30.01R VSB 1/2
SOUTH HILL*    CLOUDY    68  68 100 N6        30.08R
ROANOKE RAPIDS MOSUNNY   61  61 100 CALM      30.01R FOG
RALEIGH        FOG       67  65  93 CALM      30.02R VSB 1/2
$$

VAZ088>098-251100-
SOUTHEAST VIRGINIA

CITY           SKY/WX    TMP DP  RH WIND       PRES   REMARKS
NORFOLK        CLEAR     70  67  90 NW3       29.97R
VIRGINIA BEACH CLOUDY    70  69  97 W5        29.96R
NORFOLK NAVAL  PTCLDY    71  67  87 N7        29.99R
WEST POINT*    CLEAR     68  65  89 CALM      30.01R
NEWPORT NEWS   CLEAR     71  65  81 N3        29.98R
LANGLEY AFB    CLEAR     68  68 100 NW3       29.97R
FORT EUSTIS    CLEAR     69  69 100 N3        29.97R
WILLIAMSBURG*  CLEAR     68  66  94 N5        30.00R
FRANKLIN*      MOCLDY    66 N/A N/A W3        30.00R
WAKEFIELD      MOCLDY    68  66  93 VRB3      30.00R FOG
$$

VAZ020-022-025-037-045-251100-
WESTERN AND SOUTHWEST VIRGINIA

CITY           SKY/WX    TMP DP  RH WIND       PRES   REMARKS
STAUNTON*      CLOUDY    64  61  90 CALM      30.08R
HOT SPRINGS VA CLOUDY    56  49  75 NE8       30.15R
LYNCHBURG      CLOUDY    66  65  96 CALM      30.05R
DANVILLE       CLOUDY    67  64  90 CALM      30.04R
MARTINSVILLE   CLOUDY    64  64  97 CALM      30.08R
ROANOKE        CLOUDY    63  60  90 CALM      30.08R
BLACKSBURG     CLOUDY    63  63 100 CALM        N/A  FOG
DUBLIN*        CLOUDY    63  63 100 CALM      30.10R
MARION*        FOG      N/A N/A N/A CALM      30.14R VSB<1/4
HILLSVILLE*    CLOUDY    59  58  97 CALM      30.11R
RICHLANDS*     FOG       61  60  95 CALM      30.11S VSB 3/4
WISE*          CLOUDY    59  59 100 NE3       30.12S FOG
ABINGDON*      CLEAR     60  60  98 CALM      30.09R
$$

MDZ021>025-VAZ099-100-251100-
SOUTHERN MARYLAND AND THE DELMARVA PENINSULA

CITY           SKY/WX    TMP DP  RH WIND       PRES   REMARKS
PATUXENT RIVER PTCLDY    69  55  60 N10       30.00R
BAY BRIDGE APT   N/A     68  52  56 N9        30.01R
LEONARDTOWN    CLEAR     59  57  94 CALM      30.01R
DOVER          CLEAR     60  56  84 NW7       29.96R
GEORGETOWN     CLEAR     63  56  78 VRB3      29.98R
EASTON         CLEAR     63  57  83 CALM      30.04R
CAMBRIDGE      CLEAR     64  54  68 N6        29.99R
SALISBURY      NOT AVBL
OCEAN CITY     CLEAR     64  60  87 NW5       29.96R
WALLOPS ISLAND MOCLDY    67  60  78 N7        29.97R
ACCOMACK*        N/A     66  61  82 N5        29.97R
$$

NCZ012>017-030>032-251100-
EASTERN NORTH CAROLINA

CITY           SKY/WX    TMP DP  RH WIND       PRES   REMARKS
ELIZABETH CITY CLEAR     69  67  93 NW7       29.98R
AHOSKIE*       PTCLDY    67  66  96 CALM      30.00R
EDENTON*       MOCLDY    69  68  95 N7        29.99R
CURRITUCK*     CLOUDY    71  68  92 NW5       29.99R
KILL DEVIL HLS CLEAR     71  69  93 NW5       29.95R
MANTEO         NOT AVBL
CAPE HATTERAS  CLOUDY    74  72  93 NW8       29.96R
GOLDSBORO      MOCLDY    67  66  99 CALM      29.99R
WASHINGTON     CLOUDY    68  67  96 CALM      29.99R
GREENVILLE     CLOUDY    68  68 100 CALM      30.01S
NEW BERN       CLOUDY    69  66  90 NW7       30.00R
WILMINGTON     MOCLDY    73  71  93 N5        29.96R
$$

VAZ048-251100-
ELSEWHERE

CITY           SKY/WX    TMP DP  RH WIND       PRES   REMARKS
HARRISBURG PA  PTCLDY    59  51  75 NW8       30.03R
BALTIMORE      PTCLDY    57  52  83 NW3       30.02R
ANNAPOLIS      CLEAR     68  57  68 N8        30.01R
ANDREWS AFB    CLEAR     60  54  80 N6        30.02R
WILMINGTON DE  CLEAR     59  52  77 NW3       30.00R
PHILADELPHIA   PTCLDY    63  51  65 N7        29.98R
WILDWOOD NJ*   CLEAR     64  54  68 N6        29.97R
ATLANTIC CITY  CLEAR     60  54  80 NW5       29.96R
HENDERSON NC   CLOUDY    67  66  94 CALM      30.03R FOG
GREENSBORO     CLOUDY    68  66  93 E6        30.03R
ROCKY MOUNT    MOCLDY    66  65  96 N3        30.01R
FAYETTEVILLE   CLOUDY    69  67  93 NE12      29.98S
CHARLOTTE      MOCLDY    68  64  87 E5        30.03R
$$

VAZ100-251100-
MARINE

STATION/POSITION TIME  TEMP    WIND        PRES    WAVE   SWELL
                       AIR SEA DIR/SP/G            HT/PER HT/PER
                 (UTC) (F)     (DEG/KT/KT) (MB)    (FT/S) (FT/S)
44066 TX TWR #4  1000   72 74   10/ 12/ 14 1012.8R   2/ 8   2/ 8
CAPE MAY NJ      1000   68 76  360/  4/  9 1014.0S
LEWES DE         1000   71 72   10/ 15/ 17 1014.4R
15NM E FENWICK I 1000   72 75              1013.8R   3/ 4
OCEAN-CITY-INLET 1000   70 72  340/  7/  8 1013.9R
WACHAPREAGUE VA  1000   68 80  330/  3/  4 1014.7R
THOMAS POINT MD  1000   69 79  360/ 12/ 14 1016.6R
GOOSES REEF MD   1000   72      30/ 12/ 16 1016.1R
COVE POINT MD    1000   71      40/ 14/ 17 1015.5R
SOLOMONS ISLAND  1000      80                N/A
BISHOPS HEAD MD  1000   66 77  350/  6/  9 1014.9R
PINEY POINT MD   1000           40/  6/  7   N/A
POTOMAC MD       1000   73      30/ 14/ 17 1014.8R
CAMBRIDGE MD     1000   68 79  360/  9/ 12 1015.2R
LEWISETTA VA     1000   72 79   20/  6/ 10 1015.4R
RAPPAHANNOCK LGT 1000           10/ 19/ 20 1015.2R
STINGRAY PT      1000   76      30/ 16/ 17 1015.4R
YORK RVR RNG VA  1000   73      10/ 14/ 17 1014.1R
YORKTOWN VA      1000   70 80  330/  9/ 10 1014.7R
JAMESTOWN VA     1000   68     360/  6/  8   N/A
DOMINION TERM VA 1000   71     340/  1/  4 1014.9R
KIPTOPEKE VA     1000      81   40/  5/  7   N/A
CHES BAY BRIDGE  1000   75 79  340/ 12/ 15 1014.1R
CAPE HENRY VA    1000   75     340/ 14/ 16 1013.4R
WILLOUBY STN VA  1000          350/  8/  9 1014.0S
S CRANEY ISL VA  1000          330/  7/ 10 1014.8R
CAPE HENRY BUOY  1000      77                N/A     2/ 6
1ST LANDING BUOY 1000   76     360/ 14/ 16 1014.2R
CAPE CHARLES BUO 1000      76                N/A     2/ 7
OFFSHORE WE BUOY 1000      78                N/A     2/ 7
64NM E OF VA BCH 1000   76 78  350/ 12/ 14 1013.5R   3/ 6   2/ 6
DUCK PIER NC     1000   73 73  330/ 16/ 19 1013.5F
44056 DUCK FRF   1000                        N/A     3/ 4
OREGON INLET NC  1000   71 77  340/  5/  7 1014.2F
HATTERAS NC      1000   75 80  330/ 16/ 18 1014.5R
DIAMOND SHLS NC  1000          VRB 12/ 14  1013.6R   3/ 7   2/ 7
CAPE LOOKOUT NC  0900   75     300/  9/ 10 1014.0R
$$


USA.gov is the U.S. government's official web portal to all federal, state and local government web resources and services.